Weather History for KMGC - February, 2014

Change the Weather History Date:

Friday, February 7, 2014

  Actual Average (KVPZ) Record (KVPZ)
Temperature  
Mean Temperature 4 °F 25 °F  
Max Temperature 12 °F 33 °F 55 °F (2009)
Min Temperature -5 °F 18 °F -8 °F (2014)
Degree Days  
Heating Degree Days 62 40  
Month to date heating degree days 282  
Since 1 July heating degree days 3967  
Cooling Degree Days 0 0  
Month to date cooling degree days 0  
Year to date cooling degree days 0  
Moisture  
Dew Point -6 °F    
Average Humidity 63    
Maximum Humidity 84    
Minimum Humidity 48    
Precipitation  
Precipitation 0.00 in 0.05 in 0.33 in (2005)
Month to date precipitation 0.32  
Year to date precipitation 2.07  
Sea Level Pressure  
Sea Level Pressure 30.36 in    
Wind  
Wind Speed 8 mph (SW)    
Max Wind Speed 15 mph    
Max Gust Speed 20 mph    
Visibility 10 miles    
Events Snow    
T = Trace of Precipitation, MM = Missing Value Source: NWS Daily Summary

Daily Weather History Graph

Daily Weather History Graph

Search for Another Location

Airport or City:

Trip Planner

Search our weather history database for the weather conditions in past years. The results will help you decide how hot, cold, wet, or windy it might be!

Date:

Astronomy

Feb. 07, 2014 Rise Set
Actual Time 6:52 AM CST 5:10 PM CST
Civil Twilight 6:23 AM CST 5:39 PM CST
Nautical Twilight 5:50 AM CST 6:12 PM CST
Astronomical Twilight 5:18 AM CST 6:44 PM CST
Moon 11:20 AM CST 1:08 AM CST
Length of Visible Light 11h 15m
Length of Day
10h 17m
First Quarter, 59% of the Moon is Illuminated
Feb 7
First Quarter
Feb 14
Full
Feb 22
Last Quarter
Mar 1
New
Mar 8
First Quarter

Hourly Weather History & Observations

Time (CST) Temp. Windchill Dew Point Humidity Pressure Visibility Wind Dir Wind Speed Gust Speed Precip Events Conditions
12:15 AM -4.0 °F -14.6 °F -9.4 °F 78% 30.38 in 10.0 mi SW 4.6 mph - N/A   Mostly Cloudy
12:35 AM -4.0 °F -20.2 °F -9.4 °F 78% 30.38 in 10.0 mi SW 9.2 mph - N/A   Scattered Clouds
12:55 AM -4.0 °F -17.8 °F -11.2 °F 71% 30.38 in 10.0 mi SW 6.9 mph - N/A   Clear
1:15 AM -4.0 °F -17.8 °F -9.4 °F 78% 30.37 in 10.0 mi SW 6.9 mph - N/A   Scattered Clouds
1:35 AM -4.0 °F -17.8 °F -9.4 °F 78% 30.38 in 10.0 mi SSW 6.9 mph - N/A   Scattered Clouds
1:55 AM -5.8 °F -18.4 °F -11.2 °F 77% 30.38 in 10.0 mi SSW 5.8 mph - N/A   Scattered Clouds
2:15 AM -4.0 °F -16.3 °F -9.4 °F 78% 30.38 in 10.0 mi SSW 5.8 mph - N/A   Scattered Clouds
2:35 AM -4.0 °F -14.6 °F -9.4 °F 78% 30.36 in 10.0 mi SSW 4.6 mph - N/A   Scattered Clouds
2:55 AM -5.8 °F -14.5 °F -9.4 °F 84% 30.36 in 10.0 mi SSW 3.5 mph - N/A   Clear
3:15 AM -5.8 °F -16.7 °F -13.0 °F 71% 30.35 in 10.0 mi SW 4.6 mph - N/A   Clear
3:35 AM -5.8 °F -18.4 °F -11.2 °F 77% 30.35 in 10.0 mi SW 5.8 mph - N/A   Scattered Clouds
3:55 AM -5.8 °F -16.7 °F -11.2 °F 77% 30.35 in 7.0 mi SW 4.6 mph - N/A Snow Light Snow
4:15 AM -5.8 °F -18.4 °F -9.4 °F 84% 30.35 in 10.0 mi SW 5.8 mph - N/A   Mostly Cloudy
4:35 AM -4.0 °F -16.3 °F -9.4 °F 78% 30.35 in 10.0 mi SW 5.8 mph - N/A   Mostly Cloudy
4:55 AM -2.2 °F -14.2 °F -7.6 °F 78% 30.35 in 10.0 mi SW 5.8 mph - N/A   Mostly Cloudy
5:15 AM -0.4 °F -10.4 °F -7.6 °F 72% 30.35 in 10.0 mi SW 4.6 mph - N/A   Mostly Cloudy
5:35 AM -0.4 °F -12.0 °F -7.6 °F 72% 30.35 in 10.0 mi SW 5.8 mph - N/A   Mostly Cloudy
5:55 AM -0.4 °F -12.0 °F -7.6 °F 72% 30.35 in 10.0 mi SW 5.8 mph - N/A   Mostly Cloudy
6:15 AM -0.4 °F -13.4 °F -7.6 °F 72% 30.36 in 10.0 mi SW 6.9 mph - N/A   Mostly Cloudy
6:35 AM -0.4 °F -15.7 °F -7.6 °F 72% 30.36 in 10.0 mi SSW 9.2 mph - N/A   Scattered Clouds
6:55 AM -0.4 °F -13.4 °F -7.6 °F 72% 30.37 in 10.0 mi SW 6.9 mph - N/A   Scattered Clouds
7:15 AM -0.4 °F -13.4 °F -7.6 °F 72% 30.38 in 10.0 mi SW 6.9 mph - N/A   Scattered Clouds
7:35 AM -0.4 °F -13.4 °F -7.6 °F 72% 30.39 in 10.0 mi SW 6.9 mph - N/A   Clear
7:55 AM -0.4 °F -15.7 °F -7.6 °F 72% 30.39 in 10.0 mi SW 9.2 mph - N/A   Clear
8:15 AM 1.4 °F -15.3 °F -7.6 °F 66% 30.39 in 10.0 mi SW 11.5 mph - N/A   Clear
8:35 AM 1.4 °F -13.5 °F -7.6 °F 66% 30.39 in 10.0 mi SW 9.2 mph - N/A   Clear
8:55 AM 3.2 °F -11.3 °F -7.6 °F 61% 30.39 in 10.0 mi WSW 9.2 mph - N/A   Clear
9:15 AM 3.2 °F -9.1 °F -7.6 °F 61% 30.40 in 10.0 mi SW 6.9 mph - N/A   Clear
9:35 AM 3.2 °F -13.1 °F -5.8 °F 66% 30.39 in 10.0 mi SW 11.5 mph - N/A   Clear
9:55 AM 5.0 °F -9.1 °F -5.8 °F 61% 30.40 in 10.0 mi SW 9.2 mph - N/A   Clear
10:15 AM 5.0 °F -9.1 °F -5.8 °F 61% 30.40 in 10.0 mi SW 9.2 mph - N/A   Clear
10:35 AM 8.6 °F -5.5 °F -5.8 °F 52% 30.40 in 10.0 mi SW 10.4 mph - N/A   Clear
10:55 AM 8.6 °F -7.0 °F -5.8 °F 52% 30.40 in 10.0 mi WSW 12.7 mph - N/A   Clear
11:15 AM 10.4 °F -4.1 °F -5.8 °F 48% 30.40 in 10.0 mi SW 11.5 mph - N/A   Clear
11:35 AM 10.4 °F -6.0 °F -4.0 °F 52% 30.39 in 10.0 mi SW 15.0 mph - N/A   Clear
11:55 AM 10.4 °F -3.3 °F -4.0 °F 52% 30.39 in 10.0 mi SW 10.4 mph 19.6 mph N/A   Clear
12:15 PM 12.2 °F -1.8 °F -4.0 °F 48% 30.37 in 10.0 mi SW 11.5 mph 17.3 mph N/A   Clear
12:35 PM 12.2 °F -3.1 °F -4.0 °F 48% 30.36 in 10.0 mi SW 13.8 mph 19.6 mph N/A   Clear
12:55 PM 12.2 °F -3.7 °F -4.0 °F 48% 30.36 in 10.0 mi SW 15.0 mph 18.4 mph N/A   Clear
1:15 PM 12.2 °F -3.1 °F -4.0 °F 48% 30.36 in 10.0 mi WSW 13.8 mph - N/A   Clear
1:35 PM 12.2 °F -1.0 °F -4.0 °F 48% 30.36 in 10.0 mi SW 10.4 mph 16.1 mph N/A   Clear
1:55 PM 12.2 °F -3.7 °F -4.0 °F 48% 30.36 in 10.0 mi SW 15.0 mph - N/A   Clear
2:15 PM 12.2 °F -2.5 °F -4.0 °F 48% 30.36 in 10.0 mi SW 12.7 mph 19.6 mph N/A   Clear
2:35 PM 12.2 °F -1.8 °F -4.0 °F 48% 30.35 in 10.0 mi SW 11.5 mph - N/A   Clear
2:55 PM 12.2 °F -2.5 °F -4.0 °F 48% 30.36 in 10.0 mi SSW 12.7 mph 18.4 mph N/A   Clear
3:15 PM 12.2 °F -2.5 °F -4.0 °F 48% 30.36 in 10.0 mi SW 12.7 mph 18.4 mph N/A   Clear
3:35 PM 10.4 °F -5.4 °F -4.0 °F 52% 30.35 in 10.0 mi SW 13.8 mph - N/A   Clear
3:55 PM 10.4 °F -4.1 °F -4.0 °F 52% 30.35 in 10.0 mi SW 11.5 mph - N/A   Clear
4:15 PM 10.4 °F -4.8 °F -4.0 °F 52% 30.35 in 10.0 mi SW 12.7 mph - N/A   Clear
4:35 PM 10.4 °F -3.3 °F -5.8 °F 48% 30.35 in 10.0 mi SW 10.4 mph - N/A   Clear
4:55 PM 8.6 °F -5.5 °F -5.8 °F 52% 30.35 in 10.0 mi SW 10.4 mph - N/A   Clear
5:15 PM 8.6 °F -6.3 °F -5.8 °F 52% 30.35 in 10.0 mi SW 11.5 mph - N/A   Clear
5:35 PM 8.6 °F -4.7 °F -5.8 °F 52% 30.35 in 10.0 mi SW 9.2 mph - N/A   Clear
5:55 PM 6.8 °F -5.9 °F -5.8 °F 56% 30.35 in 10.0 mi SW 8.1 mph - N/A   Clear
6:15 PM 5.0 °F -8.1 °F -5.8 °F 61% 30.35 in 10.0 mi SSW 8.1 mph - N/A   Clear
6:35 PM 5.0 °F -8.1 °F -5.8 °F 61% 30.35 in 10.0 mi SW 8.1 mph - N/A   Clear
6:55 PM 5.0 °F -8.1 °F -5.8 °F 61% 30.36 in 10.0 mi SSW 8.1 mph - N/A   Clear
7:15 PM 3.2 °F -11.3 °F -5.8 °F 66% 30.35 in 10.0 mi SW 9.2 mph - N/A   Clear
7:35 PM 5.0 °F -5.6 °F -4.0 °F 66% 30.35 in 10.0 mi SSW 5.8 mph - N/A   Clear
7:55 PM 5.0 °F -5.6 °F -4.0 °F 66% 30.35 in 10.0 mi SSW 5.8 mph - N/A   Clear
8:15 PM 5.0 °F -5.6 °F -4.0 °F 66% 30.34 in 10.0 mi SSW 5.8 mph - N/A   Clear
8:35 PM 5.0 °F -4.1 °F -4.0 °F 66% 30.35 in 10.0 mi SSW 4.6 mph - N/A   Clear
8:55 PM 5.0 °F -5.6 °F -4.0 °F 66% 30.35 in 10.0 mi SSW 5.8 mph - N/A   Clear
9:15 PM 5.0 °F -5.6 °F -4.0 °F 66% 30.35 in 10.0 mi SW 5.8 mph - N/A   Clear
9:35 PM 6.8 °F -4.8 °F -4.0 °F 61% 30.35 in 10.0 mi SW 6.9 mph - N/A   Clear
9:55 PM 6.8 °F -4.8 °F -4.0 °F 61% 30.35 in 10.0 mi SW 6.9 mph - N/A   Clear
10:15 PM 6.8 °F -4.8 °F -4.0 °F 61% 30.35 in 10.0 mi SW 6.9 mph - N/A   Clear
10:35 PM 8.6 °F -1.3 °F -2.2 °F 62% 30.35 in 10.0 mi SSW 5.8 mph - N/A   Clear
10:55 PM 8.6 °F -2.6 °F -2.2 °F 62% 30.35 in 10.0 mi SSW 6.9 mph - N/A   Clear
11:15 PM 8.6 °F 0.1 °F -4.0 °F 57% 30.35 in 10.0 mi SSW 4.6 mph - N/A   Clear
11:35 PM 6.8 °F -2.0 °F -4.0 °F 61% 30.35 in 10.0 mi SSW 4.6 mph - N/A   Clear
11:55 PM 6.8 °F -0.1 °F -4.0 °F 61% 30.35 in 10.0 mi SSW 3.5 mph - N/A   Clear